Weather History for Flagstaff, AZ

Change the Weather History Date:

Thursday, October 13, 2011

  Actual Average Record
Temperature  
Mean Temperature 51 °F 48 °F  
Max Temperature 73 °F 63 °F 79 °F (1950)
Min Temperature 29 °F 32 °F 12 °F (1969)
Degree Days  
Heating Degree Days 14 17  
Month to date heating degree days 230 198  
Since 1 July heating degree days 436 515  
Cooling Degree Days 0 0  
Month to date cooling degree days 0 0  
Year to date cooling degree days 170 117  
Moisture  
Dew Point 26 °F    
Average Humidity 50    
Maximum Humidity 85    
Minimum Humidity 14    
Precipitation  
Precipitation 0.00 in 0.06 in 1.31 in (1941)
Month to date precipitation 1.68 0.73  
Year to date precipitation 16.38 17.30  
Snow  
Snow 0.00 in 0.10 in T in (1947)
Month to date snowfall T 0.3  
Since 1 July snowfall T 0.3  
Snow Depth 0.00 in    
Sea Level Pressure  
Sea Level Pressure 30.08 in    
Wind  
Wind Speed 2 mph (ENE)    
Max Wind Speed 12 mph    
Max Gust Speed 15 mph    
Visibility 10 miles    
Events      
T = Trace of Precipitation, MM = Missing Value Source: NWS Daily Summary

Daily Weather History Graph

Daily Weather History Graph

Search for Another Location

Airport:

Trip Planner

Search our weather history database for the weather conditions in past years. The results will help you decide how hot, cold, wet, or windy it might be!

Date:

Astronomy

Oct. 13, 2011 Rise Set
Actual Time 6:30 AM MST 5:54 PM MST
Civil Twilight 6:05 AM MST 6:19 PM MST
Nautical Twilight 5:35 AM MST 6:49 PM MST
Astronomical Twilight 5:06 AM MST 7:18 PM MST
Moon 6:38 PM MST (10/13) 8:00 AM MST (10/13)
Length of Visible Light 12h 14m
Length of Day
11h 23m
Full, 97% of the Moon is Illuminated
Oct 13
Full
Oct 19
Last Quarter
Oct 26
New
Nov 2
First Quarter
Nov 10
Full

Hourly Weather History & Observations

Time (MST) Temp. Dew Point Humidity Pressure Visibility Wind Dir Wind Speed Gust Speed Precip Events Conditions
12:57 AM 34.0 °F 28.0 °F 79% 30.11 in 10.0 mi Calm Calm - N/A   Clear
1:57 AM 33.1 °F 28.0 °F 82% 30.11 in 10.0 mi Calm Calm - N/A   Clear
2:57 AM 32.0 °F 27.0 °F 82% 30.09 in 10.0 mi Calm Calm - N/A   Clear
3:57 AM 30.0 °F 26.1 °F 85% 30.09 in 10.0 mi Calm Calm - N/A   Clear
4:57 AM 30.0 °F 25.0 °F 82% 30.10 in 10.0 mi Calm Calm - N/A   Clear
5:57 AM 28.9 °F 25.0 °F 85% 30.13 in 10.0 mi Calm Calm - N/A   Clear
6:57 AM 32.0 °F 25.0 °F 75% 30.15 in 10.0 mi Calm Calm - N/A   Clear
7:57 AM 44.1 °F 33.1 °F 65% 30.14 in 10.0 mi Calm Calm - N/A   Clear
8:57 AM 55.9 °F 28.0 °F 34% 30.12 in 10.0 mi NE 3.5 mph - N/A   Clear
9:57 AM 62.1 °F 24.1 °F 23% 30.11 in 10.0 mi East 8.1 mph - N/A   Clear
10:57 AM 64.9 °F 21.9 °F 19% 30.11 in 10.0 mi East 8.1 mph - N/A   Clear
11:57 AM 68.0 °F 21.0 °F 17% 30.09 in 10.0 mi NE 8.1 mph - N/A   Clear
12:57 PM 70.0 °F 21.0 °F 16% 30.06 in 10.0 mi ENE 6.9 mph - N/A   Clear
1:57 PM 70.0 °F 18.0 °F 14% 30.03 in 10.0 mi Variable 3.5 mph - N/A   Clear
2:57 PM 72.0 °F 19.0 °F 13% 30.01 in 10.0 mi Variable 3.5 mph - N/A   Clear
3:57 PM 72.0 °F 19.9 °F 14% 30.01 in 10.0 mi ENE 5.8 mph - N/A   Clear
4:57 PM 70.0 °F 21.9 °F 16% 30.02 in 10.0 mi East 4.6 mph - N/A   Clear
5:57 PM 60.1 °F 30.0 °F 32% 30.07 in 10.0 mi Calm Calm - N/A   Clear
6:57 PM 50.0 °F 30.9 °F 48% 30.11 in 10.0 mi Calm Calm - N/A   Clear
7:57 PM 46.0 °F 28.9 °F 51% 30.09 in 10.0 mi Calm Calm - N/A   Clear
8:57 PM 43.0 °F 28.9 °F 58% 30.06 in 10.0 mi Calm Calm - N/A   Clear
9:57 PM 42.1 °F 27.0 °F 55% 30.04 in 10.0 mi Calm Calm - N/A   Clear
10:57 PM 39.0 °F 28.0 °F 65% 30.04 in 10.0 mi Calm Calm - N/A   Clear
11:57 PM 36.0 °F 27.0 °F 70% 30.04 in 10.0 mi Calm Calm - N/A   Clear